SAS270 ENBR-ENKB

Flight info

Callsign SAS270
Flight time 0h 43m
Altitude 29000
Route OLDAS DCT TUMIM
Aircraft A320/M-SDE3FGHIRWY/LB1

Departure

Time 2026-04-25 12:42
Airport Bergen Airport, Flesland (ENBR)

Arrival

Time 2026-04-25 13:26
Airport Kristiansund Airport, Kvernberget (ENKB)
Time Latitude Longitude Altitude Speed Heading
2026-04-25 12:19 60.28991 5.22625 151 ft 0 kts 178°
2026-04-25 12:34 60.28992 5.22625 151 ft 2 kts 178°
2026-04-25 12:34 60.29017 5.22623 151 ft 4 kts 178°
2026-04-25 12:34 60.29034 5.22623 151 ft 4 kts 192°
2026-04-25 12:35 60.29051 5.22642 151 ft 0 kts 259°
2026-04-25 12:37 60.29049 5.22623 151 ft 3 kts 259°
2026-04-25 12:37 60.29041 5.22537 151 ft 10 kts 260°
2026-04-25 12:38 60.29010 5.22382 151 ft 13 kts 203°
2026-04-25 12:38 60.28894 5.22408 150 ft 20 kts 168°
2026-04-25 12:38 60.28777 5.22360 149 ft 17 kts 205°
2026-04-25 12:38 60.28645 5.22372 148 ft 22 kts 172°
2026-04-25 12:39 60.28483 5.22426 147 ft 25 kts 171°
2026-04-25 12:39 60.28324 5.22469 146 ft 14 kts 180°
2026-04-25 12:39 60.28280 5.22369 145 ft 3 kts 263°
2026-04-25 12:39 60.28280 5.22368 145 ft 0 kts 263°
2026-04-25 12:40 60.28279 5.22333 145 ft 5 kts 268°
2026-04-25 12:41 60.28289 5.22228 146 ft 10 kts 289°
2026-04-25 12:41 60.28352 5.22151 147 ft 14 kts 348°
2026-04-25 12:41 60.28627 5.22050 149 ft 73 kts 349°
2026-04-25 12:41 60.29304 5.21818 154 ft 123 kts 349°
2026-04-25 12:42 60.30218 5.21493 452 ft 137 kts 345°
2026-04-25 12:42 60.30534 5.21379 655 ft 136 kts 346°
2026-04-25 12:42 60.32072 5.20808 1810 ft 136 kts 349°
2026-04-25 12:42 60.33087 5.20470 2159 ft 159 kts 349°
2026-04-25 12:43 60.34257 5.20096 2548 ft 182 kts 350°
2026-04-25 12:43 60.35589 5.19671 2983 ft 206 kts 351°
2026-04-25 12:43 60.38590 5.18683 4553 ft 224 kts 351°
2026-04-25 12:44 60.40144 5.18164 5474 ft 228 kts 351°
2026-04-25 12:44 60.41725 5.17637 6397 ft 231 kts 351°
2026-04-25 12:44 60.44949 5.16561 8139 ft 238 kts 351°
2026-04-25 12:45 60.46588 5.16005 9010 ft 241 kts 350°
2026-04-25 12:45 60.48252 5.15435 9884 ft 244 kts 350°
2026-04-25 12:45 60.51724 5.15138 10955 ft 269 kts 359°
2026-04-25 12:46 60.53665 5.15197 11262 ft 286 kts 358°
2026-04-25 12:46 60.55675 5.15270 11928 ft 291 kts 358°
2026-04-25 12:46 60.57705 5.15354 12797 ft 291 kts 358°
2026-04-25 12:46 60.59722 5.15437 13604 ft 290 kts 357°
2026-04-25 12:47 60.61744 5.15512 14368 ft 290 kts 357°
2026-04-25 12:47 60.63759 5.15583 15095 ft 289 kts 356°
2026-04-25 12:47 60.65771 5.15652 15863 ft 289 kts 357°
2026-04-25 12:47 60.67783 5.15722 16577 ft 289 kts 357°
2026-04-25 12:48 60.69793 5.15796 17312 ft 289 kts 356°
2026-04-25 12:48 60.71803 5.15869 18070 ft 288 kts 356°
2026-04-25 12:48 60.73809 5.15940 18748 ft 288 kts 356°
2026-04-25 12:48 60.75816 5.16010 19353 ft 289 kts 356°
2026-04-25 12:49 60.77833 5.16080 20009 ft 290 kts 356°
2026-04-25 12:49 60.79857 5.16152 20652 ft 291 kts 356°
2026-04-25 12:49 60.81886 5.16226 21264 ft 292 kts 356°
2026-04-25 12:49 60.83924 5.16302 21861 ft 294 kts 356°
2026-04-25 12:50 60.85279 5.16354 22241 ft 295 kts 356°
2026-04-25 12:50 60.87332 5.16428 22812 ft 296 kts 356°
2026-04-25 12:50 60.89401 5.16497 23364 ft 298 kts 356°
2026-04-25 12:50 60.91478 5.16570 23854 ft 299 kts 356°
2026-04-25 12:51 60.93568 5.16646 24292 ft 301 kts 356°
2026-04-25 12:51 60.95673 5.16723 24773 ft 303 kts 356°
2026-04-25 12:51 60.97784 5.16803 25209 ft 304 kts 357°
2026-04-25 12:51 60.99909 5.16883 25607 ft 306 kts 357°
2026-04-25 12:52 61.02044 5.16958 25935 ft 308 kts 357°
2026-04-25 12:52 61.04195 5.17030 26292 ft 310 kts 356°
2026-04-25 12:52 61.06360 5.17398 26679 ft 317 kts
2026-04-25 12:52 61.08504 5.18786 27061 ft 330 kts 15°
2026-04-25 12:53 61.10569 5.21033 27423 ft 337 kts 18°
2026-04-25 12:53 61.12637 5.23371 27797 ft 340 kts 18°
2026-04-25 12:53 61.14714 5.25727 28133 ft 342 kts 18°
2026-04-25 12:53 61.16804 5.28107 28491 ft 344 kts 18°
2026-04-25 12:54 61.18911 5.30505 28837 ft 347 kts 18°
2026-04-25 12:54 61.21036 5.32925 29025 ft 348 kts 18°
2026-04-25 12:54 61.25177 5.37676 29066 ft 335 kts 18°
2026-04-25 12:55 61.28465 5.41429 29056 ft 332 kts 18°
2026-04-25 12:55 61.33202 5.46826 29059 ft 332 kts 18°
2026-04-25 12:56 61.37259 5.51459 29075 ft 333 kts 18°
2026-04-25 12:56 61.41302 5.56126 29076 ft 332 kts 18°
2026-04-25 12:57 61.45343 5.60794 29075 ft 332 kts 18°
2026-04-25 12:57 61.49386 5.65468 29040 ft 332 kts 19°
2026-04-25 12:58 61.53421 5.70146 29021 ft 332 kts 18°
2026-04-25 12:58 61.57450 5.74827 29033 ft 334 kts 18°
2026-04-25 12:59 61.61504 5.79574 29040 ft 334 kts 18°
2026-04-25 12:59 61.65568 5.84340 29074 ft 334 kts 18°
2026-04-25 13:00 61.68968 5.88334 29071 ft 334 kts 18°
2026-04-25 13:00 61.73698 5.93809 29081 ft 332 kts 17°
2026-04-25 13:01 61.77866 5.97886 29088 ft 328 kts 14°
2026-04-25 13:01 61.82035 6.01730 29097 ft 324 kts 14°
2026-04-25 13:02 61.86142 6.05607 29077 ft 323 kts 14°
2026-04-25 13:02 61.90232 6.09553 29062 ft 324 kts 15°
2026-04-25 13:03 61.94336 6.13541 29062 ft 324 kts 15°
2026-04-25 13:03 61.98435 6.17531 29018 ft 324 kts 15°
2026-04-25 13:04 62.00480 6.19518 28733 ft 322 kts 15°
2026-04-25 13:04 62.02508 6.21499 28460 ft 320 kts 15°
2026-04-25 13:04 62.04525 6.23477 28187 ft 318 kts 15°
2026-04-25 13:04 62.06516 6.25437 27731 ft 314 kts 14°
2026-04-25 13:05 62.08485 6.27375 27275 ft 310 kts 14°
2026-04-25 13:05 62.10428 6.29286 26737 ft 305 kts 14°
2026-04-25 13:05 62.12351 6.31171 26246 ft 303 kts 14°
2026-04-25 13:05 62.14259 6.33041 25778 ft 301 kts 14°
2026-04-25 13:06 62.16155 6.34896 25312 ft 299 kts 14°
2026-04-25 13:06 62.18037 6.36745 24875 ft 296 kts 14°
2026-04-25 13:06 62.19892 6.38581 24452 ft 292 kts 14°
2026-04-25 13:06 62.21733 6.40406 24032 ft 290 kts 14°
2026-04-25 13:07 62.23562 6.42221 23614 ft 289 kts 14°
2026-04-25 13:07 62.25384 6.44032 23166 ft 287 kts 14°
2026-04-25 13:07 62.27189 6.45828 22766 ft 284 kts 14°
2026-04-25 13:07 62.28946 6.47581 22377 ft 279 kts 14°
2026-04-25 13:08 62.30691 6.49323 21988 ft 274 kts 14°
2026-04-25 13:08 62.32414 6.51041 21606 ft 271 kts 15°
2026-04-25 13:08 62.34115 6.52737 21210 ft 268 kts 14°
2026-04-25 13:08 62.35788 6.54396 20830 ft 261 kts 14°
2026-04-25 13:09 62.37446 6.55977 20480 ft 261 kts 14°
2026-04-25 13:09 62.39123 6.57542 20076 ft 264 kts 14°
2026-04-25 13:09 62.40812 6.59118 19671 ft 265 kts 15°
2026-04-25 13:09 62.42513 6.60715 19276 ft 267 kts 15°
2026-04-25 13:10 62.44222 6.62321 18858 ft 268 kts 15°
2026-04-25 13:10 62.45928 6.63964 18448 ft 269 kts 17°
2026-04-25 13:10 62.47619 6.65740 17994 ft 271 kts 18°
2026-04-25 13:10 62.49302 6.67588 17568 ft 272 kts 19°
2026-04-25 13:11 62.50984 6.69455 17155 ft 272 kts 19°
2026-04-25 13:11 62.52671 6.71321 16740 ft 272 kts 20°
2026-04-25 13:11 62.54359 6.73177 16331 ft 272 kts 20°
2026-04-25 13:11 62.56046 6.75030 15925 ft 272 kts 20°
2026-04-25 13:12 62.57724 6.76972 15496 ft 275 kts 25°
2026-04-25 13:12 62.59268 6.79467 15080 ft 278 kts 31°
2026-04-25 13:12 62.60785 6.82072 14661 ft 278 kts 31°
2026-04-25 13:12 62.61792 6.83798 14384 ft 278 kts 31°
2026-04-25 13:13 62.63828 6.87286 13840 ft 279 kts 32°
2026-04-25 13:13 62.65350 6.89897 13389 ft 278 kts 32°
2026-04-25 13:13 62.66624 6.92081 13044 ft 278 kts 32°
2026-04-25 13:13 62.68135 6.94672 12636 ft 279 kts 33°
2026-04-25 13:14 62.69637 6.97254 12234 ft 278 kts 33°
2026-04-25 13:14 62.71158 6.99871 11829 ft 278 kts 33°
2026-04-25 13:14 62.72672 7.02481 11423 ft 278 kts 33°
2026-04-25 13:14 62.74185 7.05101 11024 ft 277 kts 33°
2026-04-25 13:15 62.75695 7.07716 10624 ft 277 kts 33°
2026-04-25 13:15 62.77197 7.10325 10345 ft 273 kts 33°
2026-04-25 13:15 62.78670 7.12889 10092 ft 269 kts 33°
2026-04-25 13:15 62.80126 7.15415 9926 ft 267 kts 33°
2026-04-25 13:16 62.81582 7.17941 9779 ft 267 kts 33°
2026-04-25 13:16 62.83037 7.20470 9648 ft 267 kts 34°
2026-04-25 13:16 62.84491 7.22997 9280 ft 266 kts 33°
2026-04-25 13:16 62.85933 7.25510 8818 ft 262 kts 33°
2026-04-25 13:17 62.87332 7.27962 8362 ft 253 kts 33°
2026-04-25 13:17 62.88685 7.30343 7921 ft 241 kts 33°
2026-04-25 13:17 62.89941 7.32571 7518 ft 233 kts 33°
2026-04-25 13:17 62.91208 7.34808 7086 ft 229 kts 33°
2026-04-25 13:18 62.92423 7.36949 6659 ft 222 kts 33°
2026-04-25 13:18 62.93609 7.39038 6259 ft 216 kts 33°
2026-04-25 13:18 62.94763 7.41067 5873 ft 210 kts 32°
2026-04-25 13:18 62.95952 7.42766 5510 ft 198 kts 19°
2026-04-25 13:19 62.97241 7.43687 5167 ft 192 kts
2026-04-25 13:19 62.98556 7.43884 4814 ft 191 kts 354°
2026-04-25 13:19 62.99868 7.43370 4454 ft 193 kts 342°
2026-04-25 13:19 63.00295 7.43042 4416 ft 189 kts 341°
2026-04-25 13:20 63.02253 7.41538 4337 ft 171 kts 341°
2026-04-25 13:20 63.02987 7.40985 4327 ft 163 kts 342°
2026-04-25 13:20 63.04388 7.41188 4214 ft 152 kts 24°
2026-04-25 13:20 63.05089 7.42943 4047 ft 160 kts 60°
2026-04-25 13:21 63.05426 7.45247 3878 ft 156 kts 61°
2026-04-25 13:21 63.05786 7.47540 3552 ft 158 kts 60°
2026-04-25 13:21 63.06130 7.49761 3302 ft 148 kts 61°
2026-04-25 13:21 63.06457 7.51857 3078 ft 142 kts 60°
2026-04-25 13:22 63.06778 7.53914 2892 ft 142 kts 59°
2026-04-25 13:22 63.07092 7.55929 2685 ft 142 kts 61°
2026-04-25 13:22 63.07414 7.57998 2481 ft 142 kts 60°
2026-04-25 13:23 63.08055 7.62139 2085 ft 142 kts 59°
2026-04-25 13:23 63.08368 7.64169 1909 ft 139 kts 59°
2026-04-25 13:23 63.08674 7.66148 1692 ft 136 kts 62°
2026-04-25 13:23 63.08981 7.68131 1489 ft 137 kts 62°
2026-04-25 13:24 63.09289 7.70129 1297 ft 138 kts 62°
2026-04-25 13:24 63.09600 7.72148 1078 ft 137 kts 60°
2026-04-25 13:24 63.09904 7.74128 885 ft 136 kts 61°
2026-04-25 13:24 63.10210 7.76117 692 ft 137 kts 64°
2026-04-25 13:25 63.10511 7.78081 516 ft 137 kts 66°
2026-04-25 13:25 63.10820 7.80096 333 ft 139 kts 66°
2026-04-25 13:25 63.11131 7.82084 219 ft 129 kts 67°
2026-04-25 13:25 63.11343 7.83493 211 ft 60 kts 71°
2026-04-25 13:26 63.11415 7.84024 211 ft 30 kts 79°
2026-04-25 13:26 63.11458 7.84113 212 ft 12 kts 267°
2026-04-25 13:26 63.11408 7.83878 216 ft 22 kts 246°
2026-04-25 13:26 63.11352 7.83542 213 ft 22 kts 251°
2026-04-25 13:27 63.11320 7.83330 214 ft 10 kts 255°
2026-04-25 13:27 63.11365 7.83236 215 ft 11 kts 347°
2026-04-25 13:27 63.11396 7.83217 219 ft 0 kts 342°
2026-04-25 13:27 63.11397 7.83217 219 ft 1 kts 342°
2026-04-25 13:28 63.11411 7.83197 211 ft 4 kts 314°
2026-04-25 13:28 63.11414 7.83175 211 ft 5 kts 283°
2026-04-25 13:28 63.11393 7.82972 213 ft 11 kts 252°
2026-04-25 13:28 63.11374 7.82860 216 ft 6 kts 244°
2026-04-25 13:29 63.11358 7.82851 215 ft 2 kts 178°
2026-04-25 13:29 63.11355 7.82854 215 ft 0 kts 163°